SCP
0 0 1 1 0 0 0 0 0 0 0 0 0 0 0 0 0 0 0 0 0 0 0 0 0 0 0 0 0 0 0 0 0 0 0 0 0 0 0 0 0 0 0
0 0 1 1 0 0 0 0 0 0 0 0 0 0 0 0 0 0 0 0 0 0 0 0 0 0 0 0 0 0 0 0 0 0 0 0 0 0 0 0 0 0 0
0 0 0 1 0 0 0 0 0 0 0 0 0 0 0 0 0 0 0 0 0 0 0 0 0 0 0 0 0 0 0 0 0 0 0 0 0 0 0 0 0 0 0
0 0 0 1 0 0 0 0 0 0 0 0 0 0 0 0 0 0 0 0 0 0 0 0 0 0 0 0 0 0 0 0 0 0 0 0 0 1 0 0 0 0 0
1 0 0 1 1 1 0 0 0 0 0 0 0 0 0 0 0 0 0 0 0 0 0 0 0 0 0 0 0 0 0 0 0 0 0 0 0 0 0 0 0 0 0
0 1 1 1 1 1 1 1 0 0 0 0 0 0 0 0 0 0 0 0 0 0 0 0 0 0 0 0 0 0 0 0 0 0 0 0 0 1 1 0 0 0 0
0 1 2 1 1 1 1 1 0 0 0 0 0 0 0 0 0 0 0 0 0 0 0 0 0 0 0 0 0 0 0 0 0 0 0 0 0 1 1 0 0 0 0
0 0 4 2 2 2 1 1 0 0 1 0 0 0 0 0 0 0 0 0 0 0 0 0 0 0 0 0 0 0 0 0 0 0 0 0 1 1 0 0 0 1 0
0 1 5 2 2 2 1 1 1 1 1 1 1 1 1 1 1 1 1 1 0 0 0 0 0 0 0 0 0 0 0 0 0 0 0 0 1 1 0 0 0 1 0
0 0 8 4 3 2 1 1 1 1 1 1 1 2 2 1 1 1 1 1 0 0 0 0 0 0 0 0 0 0 0 0 0 0 0 0 0 1 0 0 0 1 1
0 0 6 6 2 2 1 1 1 1 1 2 2 2 2 1 0 1 1 1 1 0 0 0 0 0 0 0 0 0 0 0 0 0 0 0 1 0 0 0 0 1 1
0 0 1 1 4 3 1 1 1 1 2 2 1 1 2 1 1 0 1 1 0 0 0 0 0 0 0 0 0 0 0 0 0 0 0 0 1 0 0 0 0 0 1
0 0 0 3 4 4 2 1 2 1 2 2 1 1 2 1 1 1 1 1 1 0 0 0 0 0 0 0 0 0 0 0 0 0 0 1 1 0 0 0 0 0 1
0 0 0 3 5 4 4 2 2 2 2 2 1 2 2 2 2 1 1 1 1 1 0 1 0 0 0 0 0 0 0 0 0 -0 0 1 1 0 0 0 0 0 1
0 0 0 4 5 5 8 3 2 3 2 1 2 2 2 2 1 2 1 2 2 2 1 1 0 0 0 0 0 0 0 0 0 0 0 1 1 0 0 0 0 0 0
0 0 1 3 3 4 3 7 4 4 3 2 3 3 2 2 2 2 2 2 2 1 1 1 1 0 0 0 0 0 0 0 0 0 0 0 0 0 0 0 0 0 0
0 2 2 5 3 3 4 4 8 5 5 4 4 3 2 2 2 3 2 2 2 2 1 1 0 0 0 0 0 0 0 0 0 0 0 0 0 0 0 0 0 0 0
1 2 3 1 4 4 5 4 4 5 4 5 3 3 3 4 3 3 2 2 2 2 1 1 0 0 0 0 0 0 0 0 0 0 0 0 0 0 0 0 0 0 0
1 2 4 3 5 5 5 4 3 6 4 4 3 3 3 3 2 2 2 1 2 1 1 1 1 0 0 0 0 0 0 0 0 0 0 0 0 0 0 0 0 0 0
2 4 4 5 8 4 5 5 3 4 4 2 2 2 4 3 2 2 2 2 2 1 1 1 1 0 0 0 0 0 0 0 0 0 0 0 0 0 0 0 0 0 0
2 3 5 7 10 6 6 4 4 3 3 2 2 2 3 3 2 3 2 2 1 1 1 0 0 0 0 0 0 0 0 0 0 0 0 0 0 0 0 1 0 0 0
2 3 4 7 6 5 5 3 3 2 1 1 1 2 2 2 2 1 2 1 1 1 0 0 0 0 0 0 0 0 0 0 0 0 0 0 0 0 0 0 0 0 0
1 1 2 2 3 4 4 4 4 2 2 1 2 2 2 2 2 1 1 1 1 0 0 0 0 0 0 0 0 0 0 0 0 0 0 0 0 0 0 0 0 0 0
1 1 1 1 2 2 3 2 2 1 1 1 1 2 2 2 1 1 1 0 0 0 0 0 0 0 0 0 0 0 0 0 0 0 0 0 0 0 0 0 0 0 0
1 0 1 1 1 2 2 2 1 1 1 1 2 2 2 2 1 1 0 0 0 0 0 0 0 0 0 0 0 0 0 0 0 0 0 0 0 0 0 0 0 0 0
0 0 1 1 1 1 1 1 1 1 2 2 1 1 1 1 1 0 0 0 0 0 0 0 0 0 -0 0 -0 0 0 0 0 0 0 0 0 0 0 0 0 0 0
Wind_Speed_500mb
20 18 20 21 22 18 14 13 10 8 4 3 6 8 10 12 13 15 16 15 14 14 12 11 14 16 19 20 21 22 24 29 32 30 28 28 26 25 21 15 10 15 12
12 18 17 20 22 20 17 17 14 10 7 2 4 7 9 11 12 14 15 16 15 14 13 11 11 14 16 18 20 22 23 25 29 33 30 26 24 23 23 19 15 17 17
5 20 21 21 23 23 22 20 16 13 10 7 4 6 8 10 12 15 15 15 15 14 13 14 15 13 14 16 18 20 22 23 27 28 32 27 24 20 26 24 20 19 20
4 20 23 24 26 27 25 23 19 16 12 9 5 7 10 13 14 16 17 15 15 16 16 17 17 22 17 13 15 18 19 21 23 27 26 27 14 23 23 24 29 26 23
18 21 29 27 28 29 28 26 22 18 14 12 8 7 10 14 16 17 17 17 17 18 23 24 24 23 20 17 14 14 18 19 19 22 22 17 23 15 31 26 26 32 27
21 20 34 34 29 31 31 30 26 22 17 15 11 10 11 15 17 17 19 19 20 24 25 27 28 28 24 21 25 21 19 21 20 17 12 11 19 26 20 26 26 32 30
29 30 24 37 40 34 35 34 31 26 22 19 15 13 14 17 19 19 20 21 26 28 29 30 32 34 34 30 30 34 31 28 22 18 12 16 16 31 35 41 26 27 32
18 35 36 29 40 44 41 41 37 32 28 24 21 20 21 22 23 23 24 26 34 35 34 36 38 39 38 38 38 37 37 31 30 20 15 23 25 34 38 35 38 25 30
23 37 39 39 37 46 51 48 46 40 36 33 30 28 29 29 29 28 30 31 39 38 36 37 40 43 46 46 42 39 41 38 32 30 26 28 33 37 40 33 38 35 28
32 37 47 45 46 51 59 58 55 49 45 42 40 37 37 37 34 35 25 27 30 29 37 36 36 37 39 42 41 43 42 43 40 35 33 30 25 45 39 33 30 35 31
33 36 51 47 44 44 59 64 61 58 55 53 49 46 42 42 36 28 28 34 40 41 45 44 34 29 31 33 35 38 35 44 43 31 25 34 32 30 30 33 33 33 31
44 42 52 50 49 52 46 58 62 66 66 63 56 51 47 39 27 13 31 37 36 32 32 31 21 22 22 26 24 16 27 26 32 33 35 28 40 42 35 39 33 35 35
45 51 40 55 56 57 53 44 52 55 69 68 62 54 47 29 25 26 25 28 32 32 32 25 20 24 17 7 12 25 25 23 22 19 34 41 43 39 34 36 33 35 40
46 41 46 51 55 60 58 51 59 57 55 56 59 50 43 42 37 30 29 26 27 32 32 24 24 20 16 16 26 34 22 34 37 36 41 40 40 39 42 36 35 36 40
44 43 43 44 53 55 71 60 62 58 45 40 36 41 48 43 30 23 26 29 31 29 25 34 37 40 38 39 39 39 42 35 32 30 41 41 42 39 39 39 37 37 40
42 43 42 32 48 54 69 71 64 61 50 47 51 50 48 39 31 37 37 34 39 39 40 37 37 38 35 31 29 29 34 38 39 39 28 32 37 34 37 44 38 37 39
42 43 43 45 41 60 70 67 66 67 57 57 53 43 46 42 32 37 34 32 41 40 39 44 43 38 32 33 25 27 30 36 35 43 44 21 29 37 32 31 36 36 36
52 41 44 47 47 61 72 67 71 52 60 41 48 47 46 45 38 33 32 34 27 45 44 43 44 39 33 31 29 27 30 32 34 36 45 39 30 23 17 10 26 34 33
57 46 51 51 45 61 70 62 54 51 55 59 37 39 40 39 33 28 32 34 40 47 40 40 39 34 35 30 27 24 32 27 29 35 39 34 46 29 26 25 20 27 31
58 38 42 50 48 58 62 54 46 57 49 37 45 38 33 33 29 29 38 39 42 45 40 37 35 33 34 27 26 26 33 32 29 22 30 32 39 38 30 28 30 22 30
43 46 44 43 49 59 59 44 50 50 47 44 37 34 34 33 30 36 41 43 47 44 38 35 34 34 35 27 28 31 33 30 38 35 37 34 37 30 29 35 25 23 24
42 43 49 48 56 60 53 41 47 45 36 35 35 33 34 35 28 29 36 42 40 38 37 35 34 33 35 35 39 28 15 31 44 45 41 38 33 33 39 37 33 26 27
37 34 39 47 53 54 48 46 40 38 32 31 30 28 34 32 30 28 39 36 32 33 35 29 30 32 35 33 36 33 14 18 31 46 45 43 38 37 32 40 47 40 30
26 24 27 39 49 54 47 48 42 41 33 28 24 26 18 17 17 21 33 33 25 22 21 22 23 29 33 36 33 39 36 14 18 17 43 37 30 42 40 41 38 43 43
30 28 35 45 44 51 46 43 44 35 27 16 17 22 25 30 34 28 26 16 17 15 14 17 20 22 26 30 34 29 41 32 25 10 26 46 39 30 33 37 36 36 40
32 35 42 41 49 49 45 36 35 27 19 18 21 18 20 26 24 20 11 11 11 10 11 12 11 14 18 21 24 29 31 25 16 10 33 29 35 28 21 26 22 32 40
Wind_Direction_500mb
180 145 150 170 181 172 163 159 165 184 151 9 1 353 338 325 314 305 302 298 290 291 294 289 282 278 276 273 266 256 251 244 240 238 234 234 237 241 243 225 217 175 190
174 153 157 169 181 181 176 169 170 189 180 189 335 338 330 321 311 304 300 298 296 292 288 289 293 293 289 282 277 270 259 252 246 241 238 235 236 241 241 236 226 215 210
170 171 172 178 185 187 187 176 175 187 194 217 260 310 321 321 314 305 298 287 284 281 286 299 302 292 287 285 281 278 274 266 258 248 241 235 236 249 246 242 227 228 225
257 184 189 188 190 190 191 184 184 194 197 218 259 308 320 322 317 309 299 282 275 267 276 291 300 306 295 274 278 282 280 273 266 261 251 233 232 262 270 265 238 233 231
225 200 198 199 197 195 194 193 193 198 202 216 238 286 309 315 310 304 291 282 271 268 276 286 288 291 277 277 275 276 279 280 274 266 255 235 203 255 249 257 250 233 228
198 229 199 204 205 201 201 202 200 204 207 219 234 270 300 313 308 297 289 283 276 278 276 279 283 286 279 259 271 261 264 268 273 271 260 257 211 245 238 253 249 228 224
203 227 231 205 212 210 209 211 208 211 217 227 241 268 290 304 303 293 284 281 288 287 278 273 267 269 267 255 256 261 260 257 267 264 227 259 235 244 253 253 254 235 225
244 211 245 234 223 219 216 218 216 217 225 235 249 265 280 295 304 295 286 288 279 285 278 273 269 269 266 264 262 261 265 262 258 256 236 220 244 247 250 251 246 247 228
228 223 213 232 240 235 226 221 224 221 230 237 249 261 272 282 291 294 290 283 288 286 281 277 274 272 267 265 258 257 260 261 257 246 225 239 255 254 254 258 254 243 231
234 220 217 222 238 244 233 225 224 226 229 235 244 255 266 273 284 293 294 304 299 302 303 290 284 278 271 264 258 253 251 255 262 256 235 228 254 241 248 259 265 235 226
292 248 215 215 238 253 237 229 225 226 230 232 239 248 260 268 283 293 302 304 298 305 307 296 290 284 280 272 267 264 261 258 262 255 255 219 246 238 239 257 268 239 222
284 286 229 216 221 248 245 238 227 227 231 233 238 245 254 262 275 268 260 278 297 309 313 320 296 306 293 272 269 271 267 286 256 232 235 236 238 248 250 259 264 246 222
291 295 272 218 220 228 236 233 239 228 231 233 237 242 250 252 262 271 274 288 293 296 303 314 308 307 315 315 282 276 277 274 266 246 216 242 231 238 252 261 268 243 221
291 290 284 224 222 225 223 218 241 236 237 232 233 236 234 238 246 243 240 238 275 286 287 274 285 290 257 251 246 234 248 259 263 234 246 236 234 237 246 258 263 240 221
290 286 275 237 228 236 220 214 222 232 233 231 227 230 233 241 241 241 249 246 237 248 272 278 266 247 259 260 263 254 249 239 254 244 231 237 231 238 250 260 259 237 220
289 281 267 251 233 244 239 219 217 218 221 220 214 224 239 244 232 228 243 255 264 265 253 253 255 262 255 260 253 244 251 243 238 245 238 222 229 242 254 259 253 234 218
292 276 256 248 242 244 243 225 210 221 212 215 212 226 238 247 241 235 237 240 265 274 260 251 252 255 263 252 257 258 267 248 234 235 221 243 254 256 259 255 242 229 218
286 263 256 244 240 239 238 227 211 214 214 217 225 221 233 240 254 241 248 261 265 264 273 256 255 258 257 246 242 252 260 255 233 229 223 220 232 241 258 256 234 229 221
278 260 249 245 230 233 232 230 217 214 221 213 221 221 235 249 264 267 265 259 256 266 269 255 256 253 248 245 236 251 249 243 231 221 237 233 221 233 253 257 246 221 221
278 249 243 234 216 228 228 223 207 213 221 213 217 223 231 248 258 256 263 281 272 273 270 250 252 253 242 238 239 248 256 252 226 238 220 213 212 232 216 234 238 224 215
238 238 225 224 210 214 211 200 198 205 213 205 219 223 227 237 243 250 272 268 275 274 270 254 253 250 232 230 240 247 251 248 217 212 225 211 220 226 211 230 223 213 223
244 246 233 219 206 208 202 203 198 200 219 208 218 228 235 243 258 268 266 276 274 276 265 259 253 247 238 236 241 244 250 243 223 214 208 209 222 221 217 217 227 232 225
240 243 227 212 206 195 192 186 191 194 207 203 211 207 239 253 258 264 274 283 278 272 268 262 253 244 243 244 239 228 207 221 223 217 208 213 218 222 205 219 217 214 232
219 214 193 181 183 182 183 177 187 188 194 208 227 234 214 227 246 280 287 286 283 277 266 257 250 245 248 248 245 235 225 208 195 208 216 212 212 220 228 230 205 207 219
186 176 177 182 178 169 170 183 183 182 198 184 202 244 255 259 265 275 275 282 279 282 270 263 255 247 245 246 241 239 226 235 236 209 196 207 216 225 218 215 218 214 224
157 163 174 172 152 174 166 179 181 189 176 185 210 230 253 278 283 272 245 312 295 280 282 277 258 248 238 233 230 223 229 232 234 226 207 202 201 202 211 212 198 205 209
Wind_Speed_850mb
20 18 20 21 22 18 14 13 10 8 4 3 6 8 10 12 13 15 16 15 14 14 12 11 14 16 19 20 21 22 24 29 32 30 28 28 26 25 21 15 10 15 12
12 18 17 20 22 20 17 17 14 10 7 2 4 7 9 11 12 14 15 16 15 14 13 11 11 14 16 18 20 22 23 25 29 33 30 26 24 23 23 19 15 17 17
5 20 21 21 23 23 22 20 16 13 10 7 4 6 8 10 12 15 15 15 15 14 13 14 15 13 14 16 18 20 22 23 27 28 32 27 24 20 26 24 20 19 20
4 20 23 24 26 27 25 23 19 16 12 9 5 7 10 13 14 16 17 15 15 16 16 17 17 22 17 13 15 18 19 21 23 27 26 27 14 23 23 24 29 26 23
18 21 29 27 28 29 28 26 22 18 14 12 8 7 10 14 16 17 17 17 17 18 23 24 24 23 20 17 14 14 18 19 19 22 22 17 23 15 31 26 26 32 27
21 20 34 34 29 31 31 30 26 22 17 15 11 10 11 15 17 17 19 19 20 24 25 27 28 28 24 21 25 21 19 21 20 17 12 11 19 26 20 26 26 32 30
29 30 24 37 40 34 35 34 31 26 22 19 15 13 14 17 19 19 20 21 26 28 29 30 32 34 34 30 30 34 31 28 22 18 12 16 16 31 35 41 26 27 32
18 35 36 29 40 44 41 41 37 32 28 24 21 20 21 22 23 23 24 26 34 35 34 36 38 39 38 38 38 37 37 31 30 20 15 23 25 34 38 35 38 25 30
23 37 39 39 37 46 51 48 46 40 36 33 30 28 29 29 29 28 30 31 39 38 36 37 40 43 46 46 42 39 41 38 32 30 26 28 33 37 40 33 38 35 28
32 37 47 45 46 51 59 58 55 49 45 42 40 37 37 37 34 35 25 27 30 29 37 36 36 37 39 42 41 43 42 43 40 35 33 30 25 45 39 33 30 35 31
33 36 51 47 44 44 59 64 61 58 55 53 49 46 42 42 36 28 28 34 40 41 45 44 34 29 31 33 35 38 35 44 43 31 25 34 32 30 30 33 33 33 31
44 42 52 50 49 52 46 58 62 66 66 63 56 51 47 39 27 13 31 37 36 32 32 31 21 22 22 26 24 16 27 26 32 33 35 28 40 42 35 39 33 35 35
45 51 40 55 56 57 53 44 52 55 69 68 62 54 47 29 25 26 25 28 32 32 32 25 20 24 17 7 12 25 25 23 22 19 34 41 43 39 34 36 33 35 40
46 41 46 51 55 60 58 51 59 57 55 56 59 50 43 42 37 30 29 26 27 32 32 24 24 20 16 16 26 34 22 34 37 36 41 40 40 39 42 36 35 36 40
44 43 43 44 53 55 71 60 62 58 45 40 36 41 48 43 30 23 26 29 31 29 25 34 37 40 38 39 39 39 42 35 32 30 41 41 42 39 39 39 37 37 40
42 43 42 32 48 54 69 71 64 61 50 47 51 50 48 39 31 37 37 34 39 39 40 37 37 38 35 31 29 29 34 38 39 39 28 32 37 34 37 44 38 37 39
42 43 43 45 41 60 70 67 66 67 57 57 53 43 46 42 32 37 34 32 41 40 39 44 43 38 32 33 25 27 30 36 35 43 44 21 29 37 32 31 36 36 36
52 41 44 47 47 61 72 67 71 52 60 41 48 47 46 45 38 33 32 34 27 45 44 43 44 39 33 31 29 27 30 32 34 36 45 39 30 23 17 10 26 34 33
57 46 51 51 45 61 70 62 54 51 55 59 37 39 40 39 33 28 32 34 40 47 40 40 39 34 35 30 27 24 32 27 29 35 39 34 46 29 26 25 20 27 31
58 38 42 50 48 58 62 54 46 57 49 37 45 38 33 33 29 29 38 39 42 45 40 37 35 33 34 27 26 26 33 32 29 22 30 32 39 38 30 28 30 22 30
43 46 44 43 49 59 59 44 50 50 47 44 37 34 34 33 30 36 41 43 47 44 38 35 34 34 35 27 28 31 33 30 38 35 37 34 37 30 29 35 25 23 24
42 43 49 48 56 60 53 41 47 45 36 35 35 33 34 35 28 29 36 42 40 38 37 35 34 33 35 35 39 28 15 31 44 45 41 38 33 33 39 37 33 26 27
37 34 39 47 53 54 48 46 40 38 32 31 30 28 34 32 30 28 39 36 32 33 35 29 30 32 35 33 36 33 14 18 31 46 45 43 38 37 32 40 47 40 30
26 24 27 39 49 54 47 48 42 41 33 28 24 26 18 17 17 21 33 33 25 22 21 22 23 29 33 36 33 39 36 14 18 17 43 37 30 42 40 41 38 43 43
30 28 35 45 44 51 46 43 44 35 27 16 17 22 25 30 34 28 26 16 17 15 14 17 20 22 26 30 34 29 41 32 25 10 26 46 39 30 33 37 36 36 40
32 35 42 41 49 49 45 36 35 27 19 18 21 18 20 26 24 20 11 11 11 10 11 12 11 14 18 21 24 29 31 25 16 10 33 29 35 28 21 26 22 32 40
Wind_Direction_850mb
180 145 150 170 181 172 163 159 165 184 151 9 1 353 338 325 314 305 302 298 290 291 294 289 282 278 276 273 266 256 251 244 240 238 234 234 237 241 243 225 217 175 190
174 153 157 169 181 181 176 169 170 189 180 189 335 338 330 321 311 304 300 298 296 292 288 289 293 293 289 282 277 270 259 252 246 241 238 235 236 241 241 236 226 215 210
170 171 172 178 185 187 187 176 175 187 194 217 260 310 321 321 314 305 298 287 284 281 286 299 302 292 287 285 281 278 274 266 258 248 241 235 236 249 246 242 227 228 225
257 184 189 188 190 190 191 184 184 194 197 218 259 308 320 322 317 309 299 282 275 267 276 291 300 306 295 274 278 282 280 273 266 261 251 233 232 262 270 265 238 233 231
225 200 198 199 197 195 194 193 193 198 202 216 238 286 309 315 310 304 291 282 271 268 276 286 288 291 277 277 275 276 279 280 274 266 255 235 203 255 249 257 250 233 228
198 229 199 204 205 201 201 202 200 204 207 219 234 270 300 313 308 297 289 283 276 278 276 279 283 286 279 259 271 261 264 268 273 271 260 257 211 245 238 253 249 228 224
203 227 231 205 212 210 209 211 208 211 217 227 241 268 290 304 303 293 284 281 288 287 278 273 267 269 267 255 256 261 260 257 267 264 227 259 235 244 253 253 254 235 225
244 211 245 234 223 219 216 218 216 217 225 235 249 265 280 295 304 295 286 288 279 285 278 273 269 269 266 264 262 261 265 262 258 256 236 220 244 247 250 251 246 247 228
228 223 213 232 240 235 226 221 224 221 230 237 249 261 272 282 291 294 290 283 288 286 281 277 274 272 267 265 258 257 260 261 257 246 225 239 255 254 254 258 254 243 231
234 220 217 222 238 244 233 225 224 226 229 235 244 255 266 273 284 293 294 304 299 302 303 290 284 278 271 264 258 253 251 255 262 256 235 228 254 241 248 259 265 235 226
292 248 215 215 238 253 237 229 225 226 230 232 239 248 260 268 283 293 302 304 298 305 307 296 290 284 280 272 267 264 261 258 262 255 255 219 246 238 239 257 268 239 222
284 286 229 216 221 248 245 238 227 227 231 233 238 245 254 262 275 268 260 278 297 309 313 320 296 306 293 272 269 271 267 286 256 232 235 236 238 248 250 259 264 246 222
291 295 272 218 220 228 236 233 239 228 231 233 237 242 250 252 262 271 274 288 293 296 303 314 308 307 315 315 282 276 277 274 266 246 216 242 231 238 252 261 268 243 221
291 290 284 224 222 225 223 218 241 236 237 232 233 236 234 238 246 243 240 238 275 286 287 274 285 290 257 251 246 234 248 259 263 234 246 236 234 237 246 258 263 240 221
290 286 275 237 228 236 220 214 222 232 233 231 227 230 233 241 241 241 249 246 237 248 272 278 266 247 259 260 263 254 249 239 254 244 231 237 231 238 250 260 259 237 220
289 281 267 251 233 244 239 219 217 218 221 220 214 224 239 244 232 228 243 255 264 265 253 253 255 262 255 260 253 244 251 243 238 245 238 222 229 242 254 259 253 234 218
292 276 256 248 242 244 243 225 210 221 212 215 212 226 238 247 241 235 237 240 265 274 260 251 252 255 263 252 257 258 267 248 234 235 221 243 254 256 259 255 242 229 218
286 263 256 244 240 239 238 227 211 214 214 217 225 221 233 240 254 241 248 261 265 264 273 256 255 258 257 246 242 252 260 255 233 229 223 220 232 241 258 256 234 229 221
278 260 249 245 230 233 232 230 217 214 221 213 221 221 235 249 264 267 265 259 256 266 269 255 256 253 248 245 236 251 249 243 231 221 237 233 221 233 253 257 246 221 221
278 249 243 234 216 228 228 223 207 213 221 213 217 223 231 248 258 256 263 281 272 273 270 250 252 253 242 238 239 248 256 252 226 238 220 213 212 232 216 234 238 224 215
238 238 225 224 210 214 211 200 198 205 213 205 219 223 227 237 243 250 272 268 275 274 270 254 253 250 232 230 240 247 251 248 217 212 225 211 220 226 211 230 223 213 223
244 246 233 219 206 208 202 203 198 200 219 208 218 228 235 243 258 268 266 276 274 276 265 259 253 247 238 236 241 244 250 243 223 214 208 209 222 221 217 217 227 232 225
240 243 227 212 206 195 192 186 191 194 207 203 211 207 239 253 258 264 274 283 278 272 268 262 253 244 243 244 239 228 207 221 223 217 208 213 218 222 205 219 217 214 232
219 214 193 181 183 182 183 177 187 188 194 208 227 234 214 227 246 280 287 286 283 277 266 257 250 245 248 248 245 235 225 208 195 208 216 212 212 220 228 230 205 207 219
186 176 177 182 178 169 170 183 183 182 198 184 202 244 255 259 265 275 275 282 279 282 270 263 255 247 245 246 241 239 226 235 236 209 196 207 216 225 218 215 218 214 224
157 163 174 172 152 174 166 179 181 189 176 185 210 230 253 278 283 272 245 312 295 280 282 277 258 248 238 233 230 223 229 232 234 226 207 202 201 202 211 212 198 205 209